This is the latest recevied weather packets stored in our database for station/object WO4U-13. If no packets are shown the sender has not sent any weather packets the latest 10 day(s).
| Time | Temp. | Humidity | Pressure | Rain* | Wind** | Luminosity | Snow |
|---|---|---|---|---|---|---|---|
| 1777397282 | 21.67° C | 89% | 0 hPa | 0 mm | 0 m/s | - | - |
| 1777396981 | 21.11° C | 90% | 0 hPa | 0 mm | 0 m/s | - | - |
| 1777396681 | 21.11° C | 90% | 0 hPa | 0 mm | 0 m/s | - | - |
| 1777396381 | 21.11° C | 87% | 0 hPa | 0 mm | 0.89 m/s, 208° | - | - |
| 1777396081 | 21.11° C | 89% | 0 hPa | 0 mm | 1.34 m/s, 227° | - | - |
| 1777395783 | 21.11° C | 93% | 0 hPa | 0 mm | 0.89 m/s, 177° | - | - |
| 1777395481 | 20.56° C | 93% | 0 hPa | 0 mm | 0.45 m/s, 205° | - | - |
| 1777395181 | 20.56° C | 93% | 0 hPa | 0 mm | 0 m/s | - | - |
| 1777394584 | 20° C | 95% | 0 hPa | 0 mm | 0.89 m/s, 206° | - | - |
| 1777394281 | 20° C | 96% | 0 hPa | 0 mm | 0 m/s | - | - |
| 1777393981 | 19.44° C | 96% | 0 hPa | 0 mm | 0.89 m/s, 264° | - | - |
| 1777393681 | 19.44° C | 98% | 0 hPa | 0 mm | 0.45 m/s, 254° | - | - |
| 1777393381 | 18.89° C | 98% | 0 hPa | 0 mm | 0.45 m/s, 286° | - | - |
| 1777393081 | 18.89° C | 99% | 0 hPa | 0 mm | 0.45 m/s, 329° | - | - |
| 1777392794 | 18.33° C | 99% | 0 hPa | 0 mm | 0.45 m/s, 225° | - | - |
| 1777392482 | 18.33° C | 99% | 0 hPa | 0 mm | 0 m/s | - | - |
| 1777392181 | 17.78° C | 99% | 0 hPa | 0 mm | 0.89 m/s, 139° | - | - |
| 1777391881 | 17.78° C | 99% | 0 hPa | 0 mm | 2.24 m/s, 199° | - | - |
| 1777391582 | 17.22° C | 99% | 0 hPa | 0 mm | 0.45 m/s, 170° | - | - |
| 1777391281 | 16.67° C | 99% | 0 hPa | 0 mm | 0 m/s | - | - |
| 1777390983 | 16.67° C | 99% | 0 hPa | 0 mm | 0 m/s | - | - |
| 1777390383 | 16.67° C | 99% | 0 hPa | 0 mm | 0.45 m/s, 208° | - | - |
| 1777390083 | 16.67° C | 99% | 0 hPa | 0 mm | 1.79 m/s, 195° | - | - |
| 1777389781 | 16.67° C | 99% | 0 hPa | 0 mm | 0 m/s | - | - |
| 1777388884 | 15.56° C | 99% | 0 hPa | 0 mm | 0 m/s | - | - |
* Rain latest hour (hover to see other rain measurements)
** Current wind speed in m/s (hover to see current wind gust speed)